Location: Newark
(46.7333°N, 6.6667°E)
Time: 19:35:24
(UTC+00:00)

N. Korean satellite - Pass Details

Date: 24 September 2020
Orbit: 452 x 505 km, 97.2° (Epoch: 28 October)

Event Time Altitude Azimuth Distance (km) Brightness Sun altitude
Rises 04:10:17 0° 29° (NNE) 2,601 10.9 -13.2°
Reaches altitude 10° 04:13:01 10° 51° (NE) 1,702 10.4 -12.7°
Maximum altitude 04:15:23 16° 91° (E) 1,344 10.0 -12.4°
Drops below altitude 10° 04:17:42 10° 131° (SE) 1,673 9.8 -12.0°
Sets 04:20:22 0° 154° (SSE) 2,535 10.4 -11.5°
